Location: Casco Volunteer Fire Department
(44.5576°N, 87.6146°W)
Time: 04:14:54
(UTC+00:00)

Cosmos 1869 Rocket - Pass Details

Date: 22 January 2026
Orbit: 597 x 626 km, 82.5° (Epoch: 11 February)

Event Time Altitude Azimuth Distance (km) Brightness Sun altitude
Rises 12:14:10 0° 176° (S) 2,897 7.3 -11.5°
Reaches altitude 10° 12:16:25 10° 172° (S) 1,995 6.5 -11.2°
Maximum altitude 12:20:45 57° 94° (E) 739 4.3 -10.4°
Drops below altitude 10° 12:25:06 10° 17° (NNE) 2,004 6.2 -9.7°
Sets 12:27:22 0° 13° (NNE) 2,912 7.0 -9.3°
